Showing default

OTP-2, 63235

Orbit data source: Space-Track

OTP-2, 63235 is a payload satellite owned by Rogue Space (US) in SSO that was launched on Sat, 15 Mar 2025 UTC via an FALCON 9 launch vehicle from the Air Force Western Test Range (AFWTR). Payload-class satellites include a variety of spacecraft equipped with specific instruments for various scientific and technological missions. These include communications satellites like Starlink; space stations such as the ISS; scientific satellites like the Hubble; Earth observation satellites from companies like Planet Labs, Umbra, and HawkEye 360; GPS; miniature CubeSats for education and research; and military/defense satellites.

Loading next visibility...
Identifier
63235, 2025-052AB
Orbit
SSO
Last TLE update
8 hours ago
Origin
Manufacturer
Rogue Space
Mission
Operational Commercial Technology
Bus & Motor
CUBESAT 8U, Unknown motor
Mass
11 kg wet, 11 kg dry
Launch date (UTC)
2025-03-15 (2 months ago)
Launch vehicle
FALCON 9
Launch site
Air Force Western Test Range (AFWTR)
Object type
Payload
Rocket body
Debris
Shape & HBR
Box + 2 Pan, 0.5 m
Radar Cross Section
0.055 m², Medium (>0.1 m² and < 1m²)

Expand to show TLE details & history

TLE from 8 hours ago
0 OTP-2
1 63235U 25052AB  25133.22290426  .00005296  00000-0  26627-3 0  9992
2 63235  97.4316  27.4337 0009127 114.7264 245.4920 15.17631832  9081
Epoch: 2025-05-13T05:20Z
Definitive object data (Epoch: 2025-05-13T05:20:58.928Z)
Latitude
-0.00007°
Longitude
75.96345°
Altitude
518.701 km
Speed
7.603 km/s
True Right ascension
01h 49m 44s
True Declination
0° 00' 00"
Sunlit
Object was in daylight at TLE epoch
Visualization TLE readout
Latitude
41.89849°
Longitude
69.61101°
Altitude
517.158 km
Speed
7.61 km/s
Apparent Right ascension
05h 27m 25s
Apparent Declination
6° 31' 03"
Sunlit
Object is in daylight
Visualization observer readout
Local Sidereal Time
21:52:34
Azimuth
69.318° E
Elevation
-13.509°
Doppler factor
1
Orbital elements
Apogee altitude
516.257 km
Perigee altitude
503.683 km
Semi-major axis
6,888.107 km
Eccentricity
0.0009127
Inclination
97.4316°
RAAN
27.4337°
Arg. of periapsis
114.7264°
True anomaly
245.39688°
Mean anomaly
245.492°
Eccentric anomaly
245.44444°
Mean motion
3.79659 °/min
BSTAR
0.00026627
Orbital period
94.82 mins
Loading maneuver chart data...
Loading SW <> Apogee altitude chart data...
Loading historical data...
Loading historical data...
Loading historical data...
Loading historical data...
Loading historical data...
Loading historical data...
Loading historical data...

OTP-2 Visibility forecast

Observer location: undefined°, undefined°

Span
Click to sort rows by Start time (UTC) header in descending order
Start Az.
Max El. time (UTC)
Max El. Az.
Max El.
End time (UTC)
End Az.
6 mins2025-05-13 16:33:48.992Z140.04° SSE2025-05-13 16:36:48.992Z58.494° ENE33.429°2025-05-13 16:39:48.992Z3.267° NNE
5 mins2025-05-14 05:39:48.992Z21.369° NNE2025-05-14 05:41:48.992Z76.156° E42.755°2025-05-14 05:44:48.992Z183.427° SSW
|